Time,TemperatureF,DewpointF,PressureIn,WindDirection,WindDirectionDegrees,WindSpeedMPH,WindSpeedGustMPH,Humidity,HourlyPrecipIn,Conditions,Clouds,dailyrainin,SoftwareType,DateUTC
2013-09-14 00:05:00,50.1,46.0,30.20,West,263,0.0,0.0,84,0.00,,,0.00,weatherlink.com 1.10,2013-09-14 04:05:00,
2013-09-14 00:20:00,49.7,45.0,30.20,West,263,0.0,0.0,85,0.00,,,0.00,weatherlink.com 1.10,2013-09-14 04:20:00,
2013-09-14 00:35:00,49.6,46.0,30.20,West,262,0.0,0.0,87,0.00,,,0.00,weatherlink.com 1.10,2013-09-14 04:35:00,
2013-09-14 00:50:00,49.5,46.0,30.20,West,263,0.0,0.0,87,0.00,,,0.00,weatherlink.com 1.10,2013-09-14 04:50:00,
2013-09-14 01:05:00,49.3,46.0,30.20,West,263,0.0,0.0,87,0.00,,,0.00,weatherlink.com 1.10,2013-09-14 05:05:00,
2013-09-14 01:20:00,48.8,45.0,30.19,West,263,0.0,0.0,87,0.00,,,0.00,weatherlink.com 1.10,2013-09-14 05:20:00,
2013-09-14 01:35:00,48.3,45.0,30.19,West,263,0.0,0.0,88,0.00,,,0.00,weatherlink.com 1.10,2013-09-14 05:35:00,
2013-09-14 01:50:00,48.0,45.0,30.20,West,263,0.0,0.0,89,0.00,,,0.00,weatherlink.com 1.10,2013-09-14 05:50:00,
2013-09-14 02:05:00,47.6,45.0,30.20,West,263,0.0,0.0,90,0.00,,,0.00,weatherlink.com 1.10,2013-09-14 06:05:00,
2013-09-14 02:20:00,47.5,45.0,30.20,West,263,0.0,0.0,90,0.00,,,0.00,weatherlink.com 1.10,2013-09-14 06:20:00,
2013-09-14 02:35:00,47.2,45.0,30.20,West,263,0.0,0.0,90,0.00,,,0.00,weatherlink.com 1.10,2013-09-14 06:35:00,
2013-09-14 02:50:00,46.8,44.0,30.20,West,263,0.0,0.0,90,0.00,,,0.00,weatherlink.com 1.10,2013-09-14 06:50:00,
2013-09-14 03:05:00,46.5,44.0,30.20,West,263,0.0,0.0,91,0.00,,,0.00,weatherlink.com 1.10,2013-09-14 07:05:00,
2013-09-14 03:20:00,46.4,44.0,30.21,West,263,0.0,0.0,91,0.00,,,0.00,weatherlink.com 1.10,2013-09-14 07:20:00,
2013-09-14 03:35:00,46.1,44.0,30.21,West,263,0.0,0.0,91,0.00,,,0.00,weatherlink.com 1.10,2013-09-14 07:35:00,
2013-09-14 03:50:00,45.8,43.0,30.21,West,263,0.0,0.0,91,0.00,,,0.00,weatherlink.com 1.10,2013-09-14 07:50:00,
2013-09-14 04:06:00,45.6,44.0,30.21,West,263,0.0,0.0,92,0.00,,,0.00,weatherlink.com 1.10,2013-09-14 08:06:00,
2013-09-14 04:21:00,45.6,43.0,30.21,West,262,0.0,0.0,91,0.00,,,0.00,weatherlink.com 1.10,2013-09-14 08:21:00,
2013-09-14 04:36:00,45.7,43.0,30.21,West,262,0.0,0.0,90,0.00,,,0.00,weatherlink.com 1.10,2013-09-14 08:36:00,
2013-09-14 04:51:00,45.4,43.0,30.21,West,262,0.0,0.0,90,0.00,,,0.00,weatherlink.com 1.10,2013-09-14 08:51:00,
2013-09-14 05:06:00,44.9,42.0,30.21,West,262,0.0,0.0,90,0.00,,,0.00,weatherlink.com 1.10,2013-09-14 09:06:00,
2013-09-14 05:21:00,44.5,42.0,30.22,West,263,0.0,0.0,91,0.00,,,0.00,weatherlink.com 1.10,2013-09-14 09:21:00,
2013-09-14 05:36:00,44.3,42.0,30.23,West,263,0.0,0.0,91,0.00,,,0.00,weatherlink.com 1.10,2013-09-14 09:36:00,
2013-09-14 05:51:00,44.0,42.0,30.23,West,263,0.0,0.0,91,0.00,,,0.00,weatherlink.com 1.10,2013-09-14 09:51:00,
2013-09-14 06:06:00,43.7,42.0,30.23,West,262,0.0,0.0,92,0.00,,,0.00,weatherlink.com 1.10,2013-09-14 10:06:00,
2013-09-14 06:21:00,43.6,42.0,30.23,West,263,0.0,0.0,92,0.00,,,0.00,weatherlink.com 1.10,2013-09-14 10:21:00,
2013-09-14 06:36:00,43.4,41.0,30.23,West,263,0.0,0.0,92,0.00,,,0.00,weatherlink.com 1.10,2013-09-14 10:36:00,
2013-09-14 06:51:00,43.1,41.0,30.23,West,262,0.0,0.0,93,0.00,,,0.00,weatherlink.com 1.10,2013-09-14 10:51:00,
2013-09-14 07:06:00,42.9,41.0,30.23,West,262,0.0,0.0,93,0.00,,,0.00,weatherlink.com 1.10,2013-09-14 11:06:00,
2013-09-14 07:21:00,42.8,41.0,30.23,West,263,0.0,0.0,93,0.00,,,0.00,weatherlink.com 1.10,2013-09-14 11:21:00,
2013-09-14 07:36:00,42.5,41.0,30.24,West,263,0.0,0.0,93,0.00,,,0.00,weatherlink.com 1.10,2013-09-14 11:36:00,
2013-09-14 07:51:00,42.5,41.0,30.25,West,263,0.0,0.0,93,0.00,,,0.00,weatherlink.com 1.10,2013-09-14 11:51:00,
2013-09-14 08:06:00,42.8,41.0,30.25,West,263,0.0,0.0,94,0.00,,,0.00,weatherlink.com 1.10,2013-09-14 12:06:00,
2013-09-14 08:21:00,43.5,42.0,30.26,West,262,0.0,0.0,95,0.00,,,0.00,weatherlink.com 1.10,2013-09-14 12:21:00,
2013-09-14 08:36:00,44.5,43.0,30.26,West,262,0.0,0.0,95,0.00,,,0.00,weatherlink.com 1.10,2013-09-14 12:36:00,
2013-09-14 08:51:00,46.1,44.0,30.26,West,264,0.0,0.0,92,0.00,,,0.00,weatherlink.com 1.10,2013-09-14 12:51:00,
2013-09-14 09:06:00,48.2,44.0,30.27,West,269,0.0,0.0,86,0.00,,,0.00,weatherlink.com 1.10,2013-09-14 13:06:00,
2013-09-14 09:21:00,50.4,45.0,30.27,West,280,0.0,1.0,81,0.00,,,0.00,weatherlink.com 1.10,2013-09-14 13:21:00,
2013-09-14 09:36:00,52.1,45.0,30.27,West,276,0.0,1.0,76,0.00,,,0.00,weatherlink.com 1.10,2013-09-14 13:36:00,
2013-09-14 09:51:00,53.8,45.0,30.27,West,262,0.0,1.0,72,0.00,,,0.00,weatherlink.com 1.10,2013-09-14 13:51:00,
2013-09-14 10:06:00,56.5,46.0,30.27,West,263,0.0,1.0,67,0.00,,,0.00,weatherlink.com 1.10,2013-09-14 14:06:00,
2013-09-14 10:21:00,58.8,46.0,30.28,West,279,0.0,1.0,62,0.00,,,0.00,weatherlink.com 1.10,2013-09-14 14:21:00,
2013-09-14 10:36:00,59.8,46.0,30.27,West,281,0.0,2.0,60,0.00,,,0.00,weatherlink.com 1.10,2013-09-14 14:36:00,
2013-09-14 10:52:00,61.4,46.0,30.27,WNW,289,0.0,2.0,57,0.00,,,0.00,weatherlink.com 1.10,2013-09-14 14:52:00,
2013-09-14 11:07:00,62.4,46.0,30.27,SSW,203,1.0,2.0,55,0.00,,,0.00,weatherlink.com 1.10,2013-09-14 15:07:00,
2013-09-14 11:22:00,64.0,43.0,30.26,ESE,109,0.0,4.0,46,0.00,,,0.00,weatherlink.com 1.10,2013-09-14 15:22:00,
2013-09-14 11:37:00,65.6,42.0,30.27,West,278,1.0,3.0,42,0.00,,,0.00,weatherlink.com 1.10,2013-09-14 15:37:00,
2013-09-14 11:52:00,65.6,43.0,30.27,West,279,0.0,2.0,44,0.00,,,0.00,weatherlink.com 1.10,2013-09-14 15:52:00,
2013-09-14 12:07:00,65.1,44.0,30.26,ESE,108,0.0,3.0,47,0.00,,,0.00,weatherlink.com 1.10,2013-09-14 16:07:00,
2013-09-14 12:22:00,66.1,43.0,30.26,ESE,116,0.0,3.0,44,0.00,,,0.00,weatherlink.com 1.10,2013-09-14 16:22:00,
2013-09-14 12:37:00,66.7,43.0,30.25,SE,136,1.0,2.0,43,0.00,,,0.00,weatherlink.com 1.10,2013-09-14 16:37:00,
2013-09-14 12:52:00,69.1,42.0,30.25,West,273,2.0,5.0,38,0.00,,,0.00,weatherlink.com 1.10,2013-09-14 16:52:00,
2013-09-14 13:07:00,69.6,41.0,30.24,SE,139,1.0,4.0,36,0.00,,,0.00,weatherlink.com 1.10,2013-09-14 17:07:00,
2013-09-14 13:22:00,67.9,41.0,30.24,WNW,299,0.0,3.0,37,0.00,,,0.00,weatherlink.com 1.10,2013-09-14 17:22:00,
2013-09-14 13:37:00,67.4,41.0,30.23,WNW,288,1.0,3.0,38,0.00,,,0.00,weatherlink.com 1.10,2013-09-14 17:37:00,
2013-09-14 13:52:00,67.7,41.0,30.23,WSW,242,0.0,2.0,38,0.00,,,0.00,weatherlink.com 1.10,2013-09-14 17:52:00,
2013-09-14 14:07:00,69.6,41.0,30.22,SSE,152,0.0,2.0,36,0.00,,,0.00,weatherlink.com 1.10,2013-09-14 18:07:00,
2013-09-14 14:22:00,69.7,38.0,30.21,WNW,285,1.0,3.0,32,0.00,,,0.00,weatherlink.com 1.10,2013-09-14 18:22:00,
2013-09-14 14:37:00,69.6,41.0,30.21,SE,134,0.0,2.0,35,0.00,,,0.00,weatherlink.com 1.10,2013-09-14 18:37:00,
2013-09-14 14:52:00,70.4,41.0,30.20,ESE,115,2.0,2.0,35,0.00,,,0.00,weatherlink.com 1.10,2013-09-14 18:52:00,
2013-09-14 15:07:00,70.5,41.0,30.20,SSW,194,0.0,2.0,34,0.00,,,0.00,weatherlink.com 1.10,2013-09-14 19:07:00,
2013-09-14 15:22:00,71.4,41.0,30.19,NW,326,0.0,3.0,33,0.00,,,0.00,weatherlink.com 1.10,2013-09-14 19:22:00,
2013-09-14 15:37:00,72.4,41.0,30.19,SSE,159,2.0,3.0,32,0.00,,,0.00,weatherlink.com 1.10,2013-09-14 19:37:00,
2013-09-14 15:52:00,72.5,41.0,30.18,SE,127,0.0,2.0,32,0.00,,,0.00,weatherlink.com 1.10,2013-09-14 19:52:00,
2013-09-14 16:07:00,72.2,41.0,30.18,SE,127,0.0,2.0,33,0.00,,,0.00,weatherlink.com 1.10,2013-09-14 20:07:00,
2013-09-14 16:22:00,71.4,42.0,30.18,SE,124,0.0,4.0,34,0.00,,,0.00,weatherlink.com 1.10,2013-09-14 20:22:00,
2013-09-14 16:37:00,70.6,42.0,30.17,West,264,0.0,3.0,35,0.00,,,0.00,weatherlink.com 1.10,2013-09-14 20:37:00,
2013-09-14 16:52:00,70.8,40.0,30.17,ESE,113,0.0,2.0,33,0.00,,,0.00,weatherlink.com 1.10,2013-09-14 20:52:00,
2013-09-14 17:07:00,70.0,42.0,30.17,NNE,29,1.0,2.0,36,0.00,,,0.00,weatherlink.com 1.10,2013-09-14 21:07:00,
2013-09-14 17:22:00,69.6,41.0,30.17,West,281,0.0,2.0,36,0.00,,,0.00,weatherlink.com 1.10,2013-09-14 21:22:00,
2013-09-14 17:37:00,69.4,41.0,30.17,ESE,119,0.0,3.0,36,0.00,,,0.00,weatherlink.com 1.10,2013-09-14 21:37:00,
2013-09-14 17:52:00,69.2,41.0,30.17,WNW,289,1.0,2.0,36,0.00,,,0.00,weatherlink.com 1.10,2013-09-14 21:52:00,
2013-09-14 18:07:00,68.9,41.0,30.16,West,274,0.0,2.0,37,0.00,,,0.00,weatherlink.com 1.10,2013-09-14 22:07:00,
2013-09-14 18:22:00,68.6,41.0,30.16,ESE,110,1.0,2.0,37,0.00,,,0.00,weatherlink.com 1.10,2013-09-14 22:22:00,
2013-09-14 18:37:00,68.7,42.0,30.16,ESE,114,0.0,2.0,38,0.00,,,0.00,weatherlink.com 1.10,2013-09-14 22:37:00,
2013-09-14 18:52:00,69.3,42.0,30.16,ESE,105,2.0,2.0,38,0.00,,,0.00,weatherlink.com 1.10,2013-09-14 22:52:00,
2013-09-14 19:07:00,68.0,42.0,30.15,SE,143,0.0,1.0,39,0.00,,,0.00,weatherlink.com 1.10,2013-09-14 23:07:00,
2013-09-14 19:22:00,66.5,42.0,30.15,SSE,160,0.0,1.0,41,0.00,,,0.00,weatherlink.com 1.10,2013-09-14 23:22:00,
2013-09-14 19:37:00,65.5,42.0,30.15,ESE,112,0.0,1.0,42,0.00,,,0.00,weatherlink.com 1.10,2013-09-14 23:37:00,
2013-09-14 19:52:00,64.8,42.0,30.15,ESE,120,0.0,0.0,43,0.00,,,0.00,weatherlink.com 1.10,2013-09-14 23:52:00,
2013-09-14 20:07:00,63.9,42.0,30.15,ESE,120,0.0,0.0,45,0.00,,,0.00,weatherlink.com 1.10,2013-09-15 00:07:00,
2013-09-14 20:22:00,62.8,42.0,30.15,ESE,120,0.0,0.0,46,0.00,,,0.00,weatherlink.com 1.10,2013-09-15 00:22:00,
2013-09-14 20:37:00,61.9,43.0,30.16,ESE,120,0.0,0.0,50,0.00,,,0.00,weatherlink.com 1.10,2013-09-15 00:37:00,
2013-09-14 20:52:00,60.6,43.0,30.16,ESE,120,0.0,0.0,52,0.00,,,0.00,weatherlink.com 1.10,2013-09-15 00:52:00,
2013-09-14 21:07:00,59.6,43.0,30.16,ESE,120,0.0,0.0,54,0.00,,,0.00,weatherlink.com 1.10,2013-09-15 01:07:00,
2013-09-14 21:22:00,59.1,43.0,30.16,ESE,120,0.0,0.0,55,0.00,,,0.00,weatherlink.com 1.10,2013-09-15 01:22:00,
2013-09-14 21:37:00,58.3,42.0,30.16,ESE,120,0.0,0.0,56,0.00,,,0.00,weatherlink.com 1.10,2013-09-15 01:37:00,
2013-09-14 21:52:00,57.7,43.0,30.16,ESE,120,0.0,0.0,58,0.00,,,0.00,weatherlink.com 1.10,2013-09-15 01:52:00,
2013-09-14 22:07:00,56.7,42.0,30.16,ESE,121,0.0,0.0,59,0.00,,,0.00,weatherlink.com 1.10,2013-09-15 02:07:00,
2013-09-14 22:22:00,56.3,42.0,30.15,ESE,120,0.0,0.0,60,0.00,,,0.00,weatherlink.com 1.10,2013-09-15 02:22:00,
2013-09-14 22:37:00,56.1,43.0,30.15,ESE,121,0.0,0.0,61,0.00,,,0.00,weatherlink.com 1.10,2013-09-15 02:37:00,
2013-09-14 22:52:00,55.9,42.0,30.15,SE,131,0.0,0.0,60,0.00,,,0.00,weatherlink.com 1.10,2013-09-15 02:52:00,
2013-09-14 23:07:00,56.1,42.0,30.15,SE,132,0.0,1.0,59,0.00,,,0.00,weatherlink.com 1.10,2013-09-15 03:07:00,
2013-09-14 23:22:00,56.1,41.0,30.14,SE,145,0.0,1.0,58,0.00,,,0.00,weatherlink.com 1.10,2013-09-15 03:22:00,
2013-09-14 23:37:00,55.9,41.0,30.14,SSE,153,0.0,1.0,58,0.00,,,0.00,weatherlink.com 1.10,2013-09-15 03:37:00,
2013-09-14 23:52:00,55.8,41.0,30.13,SSE,154,0.0,0.0,57,0.00,,,0.00,weatherlink.com 1.10,2013-09-15 03:52:00,